Location: Wells
(51.2093°N, 2.6446°W)
Time: 12:46:02
(UTC+01:00)

CUBEBUG 2 - Pass Details

Date: 15 March 2026
Orbit: 548 x 627 km, 97.9° (Epoch: 13 April)

Event Time Altitude Azimuth Distance (km) Brightness Sun altitude
Rises 01:55:50 0° 21° (NNE) 2,892 ? -37.0°
Reaches altitude 10° 01:58:13 10° 32° (NNE) 1,992 ? -36.8°
Enters shadow 01:59:20 16° 41° (NE) 1,614 ? -36.7°
